This demonstration page uses our WeatherBlox Daily Observations layout. Learn more.

Hourly Observations for February 4, 2019

Temp ( °F °C ) Dew Point ( °F °C ) Humidity (%) Winds ( mph kmh ) Pressure ( in mb ) Visibility ( mi km ) Precip ( " mm )
12:15 am 00:15 Clear 32 0 32 0 100 100 Calm 30.15 1021 7 11.265408 0 0
12:35 am 00:35 Clear 32 0 32 0 100 100 N 3 6 30.15 1021 7 11.265408 0 0
12:55 am 00:55 Clear 32 0 32 0 100 100 N 3 6 30.12 1020 7 11.265408 0 0
1:15 am 01:15 Clear 32 0 32 0 100 100 Calm 30.12 1020 7 11.265408 0 0
1:35 am 01:35 Clear 30 -1 30 -1 100 100 Calm 30.12 1020 7 11.265408 0 0
1:55 am 01:55 Clear 32 0 32 0 100 100 Calm 30.12 1020 7 11.265408 0 0
2:15 am 02:15 Clear 32 0 32 0 100 100 N 3 6 30.12 1020 7 11.265408 0 0
2:35 am 02:35 Clear 32 0 32 0 100 100 NNE 3 6 30.12 1020 7 11.265408 0 0
2:55 am 02:55 Clear 32 0 32 0 100 100 Calm 30.12 1020 7 11.265408 0 0
3:15 am 03:15 Clear with Mist and Fog 30 -1 30 -1 100 100 NNE 3 6 30.12 1020 5 8.04672 0 0
3:35 am 03:35 Clear 32 0 32 0 100 100 NNE 3 6 30.12 1020 7 11.265408 0 0
3:55 am 03:55 Clear 32 0 32 0 100 100 Calm 30.12 1020 7 11.265408 0 0
4:15 am 04:15 Clear 32 0 32 0 100 100 Calm 30.12 1020 7 11.265408 0 0
4:35 am 04:35 Clear with Mist and Fog 32 0 32 0 100 100 N 3 6 30.12 1020 5 8.04672 0 0
4:55 am 04:55 Clear 30 -1 30 -1 100 100 N 3 6 30.12 1020 5 8.04672 0 0
5:15 am 05:15 Clear 30 -1 30 -1 100 100 NNE 3 6 30.12 1020 5 8.04672 0 0
5:35 am 05:35 Clear with Mist and Fog 30 -1 30 -1 100 100 N 6 9 30.12 1020 5 8.04672 0 0
5:55 am 05:55 Clear with Mist and Fog 30 -1 30 -1 100 100 N 3 6 30.12 1020 5 8.04672 0 0
6:15 am 06:15 Clear with Mist and Fog 32 0 32 0 100 100 Calm 30.12 1020 5 8.04672 0 0
6:35 am 06:35 Clear with Mist and Fog 30 -1 30 -1 100 100 Calm 30.12 1020 5 8.04672 0 0
6:55 am 06:55 Clear with Mist and Fog 28 -2 28 -2 100 100 Calm 30.15 1021 5 8.04672 0 0
7:15 am 07:15 Sunny with Mist and Fog 28 -2 28 -2 100 100 Calm 30.15 1021 4 6.437376 0 0
7:35 am 07:35 Sunny with Mist and Fog 28 -2 28 -2 100 100 Calm 30.15 1021 3 4.828032 0 0
7:55 am 07:55 Sunny with Mist and Fog 30 -1 30 -1 100 100 N 3 6 30.15 1021 4 6.437376 0 0
8:15 am 08:15 Sunny with Mist and Fog 30 -1 30 -1 100 100 NNW 3 6 30.15 1021 3 4.828032 0 0
8:35 am 08:35 Sunny with Mist and Fog 32 0 32 0 100 100 Calm 30.15 1021 4 6.437376 0 0
8:55 am 08:55 Sunny with Mist and Fog 34 1 34 1 100 100 Calm 30.15 1021 4 6.437376 0 0
9:15 am 09:15 Sunny 37 3 36 2 93 93 Calm 30.15 1021 7 11.265408 0 0
9:35 am 09:35 Sunny 41 5 36 2 81 81 N 3 6 30.15 1021 7 11.265408 0 0
9:55 am 09:55 Sunny 43 6 37 3 81 81 Calm 30.15 1021 7 11.265408 0 0
10:15 am 10:15 Sunny 43 6 37 3 81 81 Calm 30.15 1021 7 11.265408 0 0
10:35 am 10:35 Sunny 45 7 37 3 76 76 Calm 30.15 1021 7 11.265408 0 0
10:55 am 10:55 Sunny 46 8 39 4 76 76 Calm 30.15 1021 7 11.265408 0 0
11:15 am 11:15 Sunny 50 10 39 4 67 67 Calm 30.15 1021 7 11.265408 0 0
11:35 am 11:35 Sunny 52 11 41 5 67 67 NW 3 6 30.12 1020 10 16.09344 0 0
11:55 am 11:55 Sunny 52 11 41 5 67 67 Calm 30.09 1019 7 11.265408 0 0
12:15 pm 12:15 Sunny 54 12 41 5 63 63 Calm 30.09 1019 10 16.09344 0 0
12:35 pm 12:35 Sunny 54 12 41 5 63 63 Calm 30.06 1018 10 16.09344 0 0
12:55 pm 12:55 Sunny 55 13 43 6 63 63 Calm 30.06 1018 10 16.09344 0 0
1:15 pm 13:15 Sunny 57 14 43 6 59 59 ESE 3 6 30.06 1018 10 16.09344 0 0
1:35 pm 13:35 Sunny 59 15 43 6 55 55 ESE 3 6 30.06 1018 10 16.09344 0 0
1:55 pm 13:55 Sunny 59 15 43 6 55 55 ESE 5 7 30.03 1017 10 16.09344 0 0
2:15 pm 14:15 Sunny 59 15 43 6 55 55 E 3 6 30.03 1017 10 16.09344 0 0
2:35 pm 14:35 Sunny 61 16 43 6 52 52 ESE 6 9 30.03 1017 10 16.09344 0 0
2:55 pm 14:55 Sunny 61 16 43 6 52 52 ESE 5 7 30.03 1017 10 16.09344 0 0
3:15 pm 15:15 Sunny 61 16 43 6 52 52 SSE 5 7 30.03 1017 10 16.09344 0 0
3:35 pm 15:35 Sunny 61 16 43 6 52 52 S 5 7 30.03 1017 10 16.09344 0 0
3:55 pm 15:55 Sunny 61 16 43 6 52 52 WSW 3 6 30.03 1017 10 16.09344 0 0
4:15 pm 16:15 Sunny 61 16 43 6 52 52 Calm 30.03 1017 10 16.09344 0 0
4:35 pm 16:35 Sunny 61 16 43 6 52 52 Calm 30 1016 10 16.09344 0 0
4:55 pm 16:55 Sunny 61 16 43 6 52 52 SE 5 7 30 1016 10 16.09344 0 0
5:15 pm 17:15 Sunny 61 16 43 6 52 52 SSE 3 6 30 1016 10 16.09344 0 0
5:35 pm 17:35 Clear 59 15 43 6 55 55 S 3 6 30 1016 10 16.09344 0 0
5:55 pm 17:55 Clear 57 14 43 6 59 59 SSW 3 6 30 1016 10 16.09344 0 0
6:15 pm 18:15 Clear 52 11 43 6 72 72 S 3 6 30 1016 10 16.09344 0 0
6:35 pm 18:35 Clear 54 12 43 6 67 67 S 6 9 30 1016 10 16.09344 0 0
6:55 pm 18:55 Clear 54 12 41 5 63 63 S 6 9 30 1016 10 16.09344 0 0
7:15 pm 19:15 Clear 48 9 41 5 76 76 S 3 6 30.03 1017 10 16.09344 0 0
7:35 pm 19:35 Clear 45 7 41 5 87 87 S 5 7 30.03 1017 10 16.09344 0 0
7:55 pm 19:55 Clear 45 7 41 5 87 87 S 6 9 30.03 1017 10 16.09344 0 0
8:15 pm 20:15 Clear 43 6 39 4 87 87 SW 3 6 30.03 1017 10 16.09344 0 0
8:35 pm 20:35 Clear 45 7 39 4 81 81 SSW 5 7 30.03 1017 10 16.09344 0 0
8:55 pm 20:55 Clear 43 6 39 4 87 87 S 5 7 30.03 1017 10 16.09344 0 0
9:15 pm 21:15 Clear 41 5 37 3 87 87 SSW 3 6 30.03 1017 10 16.09344 0 0
9:35 pm 21:35 Clear 41 5 37 3 87 87 Calm 30.03 1017 10 16.09344 0 0
9:55 pm 21:55 Clear 43 6 37 3 81 81 Calm 30.03 1017 10 16.09344 0 0
10:15 pm 22:15 Clear 41 5 37 3 87 87 SSW 5 7 30.03 1017 10 16.09344 0 0
10:35 pm 22:35 Clear 43 6 37 3 81 81 S 3 6 30.03 1017 10 16.09344 0 0
10:55 pm 22:55 Clear 37 3 36 2 93 93 S 3 6 30.03 1017 10 16.09344 0 0
11:15 pm 23:15 Clear 41 5 37 3 87 87 Calm 30.03 1017 10 16.09344 0 0
11:35 pm 23:35 Clear 36 2 36 2 100 100 Calm 30.03 1017 10 16.09344 0 0
11:55 pm 23:55 Clear 37 3 36 2 93 93 Calm 30.03 1017 10 16.09344 0 0

Powered by AerisWeather